map of MCP home
MCP - Airport
Location
City:  Macapá, Pará, Brazil
Name:Alberto Alcolumbre International Airport
ICAO:SBMQ
IATA:MCP

Details
Type:Airport (Aerodrome, Airfield)
Use:Public/Civil, International (customs port of entry)
Latitude:0°03'02"N (0.050664)
Longitude:51°04'20"W (-51.072177)
Datum:WGS 1984
Elevation:56 ft (17 m)
Variation:19.34°W (WMM2015 magnetic declination)
-0.04° annual change
Runways:1
Longest:6890 × 148 ft (2100 × 45 m), paved

Time
Time Zone:UTC-3
Local Time:

Weather
METAR:SBMQ 222200Z 09006KT 9999 TS BKN025 FEW033CB BKN100 29/25 Q1010
TAF:SBMQ 221600Z 2218/2318 08005KT 9999 SCT020 FEW030TCU TX35/2218Z TN25/2306Z
RMK PCW

Related Locations
Nearby:
Farthest:GEB: 12414 mi / 19979 km
Gebe, Gebe Island, ML, ID

Find:

   beyond  
but within

Other Information
Maps:
NOTAMs:
Links:
Sources:

  
flag of Brazil
flag of Pará
flag of Macapá
  

Sectional Chart

Flight Planning
at skyvector.com

Satellite Image

Google Maps Satellite view

 

Copyright © 2004-2017 Karl L. Swartz. All rights reserved.
The Great Circle Mapper name and logo are trademarks of the Great Circle Mapper.
All other trademarks mentioned herein belong to their respective owners.
Please see credits for attibutions and further copyright information.

  Follow gcmap on Facebook Follow gcmap on Twitter Follow gcmap on Google+ GCmap on LinkedIn

hCard Microformat

Geo Microformat